Tracking 19242 objects as of 19-Sep-2018
HD Live streaming from Space Station
objects crossing your sky now

FENGYUN 1C DEB

Track FENGYUN 1C DEB now!
10-day predictions


NORAD ID: 32316
Int'l Code: 1999-025CXH
Perigee: 755.9 km
Apogee: 824.4 km
Inclination: 99.5 °
Period: 100.5 minutes
Semi major axis: 7161 km
RCS: 0.0087 m2 (small)
Launch date: May 10, 1999
Source: People's Republic of China (PRC)
Launch site: Taiyaun Space Center, China (TSC)

Note: This is SATELLITE DEBRIS
aabbcc
Your satellite tracking list
Your tracking list is empty




NASA's NSSDC Master Catalog

Two Line Element Set (TLE):
1 32316U 99025CXH 18261.43802177 +.00000264 +00000-0 +11502-3 0  9994
2 32316 099.5198 329.0572 0047861 058.9388 005.8900 14.32616868578189
Source of the keplerian elements: AFSPC